Location: SE Lincoln, NE
(40.7805°N, 96.6275°W)
Time: 07:43:27
(UTC-05:00)

BREEZE M DEB (TANK) - Pass Details

Date: 15 May 2021
Orbit: 273 x 14490 km, 49.6° (Epoch: 20 June)

Event Time Altitude Azimuth Distance (km) Brightness Sun altitude
Rises 21:20:48 0° 285° (WNW) 5,773 9.1 -7.9°
Reaches altitude 10° 21:26:42 10° 296° (WNW) 3,173 7.8 -8.9°
Maximum altitude 21:31:51 25° 351° (N) 1,178 4.6 -9.6°
Drops below altitude 10° 21:34:16 10° 53° (NE) 1,414 4.3 -10.0°
Enters shadow 21:35:23 - 66° (ENE) 1,838 4.7 -10.2°
